Погода в Обзоре

Болгария     42°49′10″N   27°52′50″E
темп.,
°C
ветер,
м/с
пор.,
м/с
влажн.,
%
обл.,
%
осадки,
мм/ч
давл.,
гПа
погр.,
м
22 сентября, ср
ср2200:00+17ссз3354100 0.0 1022627
03:00+15ссз546131 0.0 1022410
06:00+15ссз436024 0.0 1021424
09:00+15с446494 0.0 1021554
12:00+15с3355100 0.0 1019591
15:00+16з2353100 0.0 1018634
18:00+17зюз2345100 0.0 1017983
21:00+16сз9863100 0.1 1017740
23 сентября, чт
чт2300:00+15с896994 0.8 10171113
03:00+14ссз810685 1.0 1017794
06:00+13ссз811765 0.0 1018661
09:00+13ссз81073100 0.0 1019749
12:00+15с78588 0.0 10201470
15:00+16с7752100 0.0 10191676
18:00+16с4648100 0.0 10191679
21:00+17ссз3445100 0.0 10201401
24 сентября, пт
пт2400:00+16ссз21445 0.0 1020831
03:00+16з33515 0.0 1020568
06:00+15зюз68635 0.0 1018427
09:00+15зюз7861100 0.0 1018381
12:00+18юз894899 0.0 1017924
15:00+21юз894242 0.0 10151306
18:00+23юз79485 0.0 1013226
21:00+21зюз6104772 0.0 1014241
25 сентября, сб
сб2500:00+20зюз8104595 0.0 1015261
03:00+19сз684736 0.0 1016338
06:00+19ссз345168 0.0 1018183
09:00+19ссз11495 0.0 1020229
12:00+20юв32522 0.0 1021363
15:00+20юв55582 0.0 1021389
18:00+21юв76640 0.0 1021431
21:00+21ююв66650 0.0 1022489
26 сентября, вс
вс2600:00+21ююв66680 0.0 1023538
03:00+21ююв66700 0.0 1022550
06:00+20ю56720 0.0 1022554
09:00+20ю55720 0.0 1022534
12:00+20ю55710 0.0 1023418
15:00+21юв54670 0.0 1022361
18:00+21юв56690 0.0 1020401
21:00+21ююв55700 0.0 1020399